Weather History for KMPO - October, 2013

Change the Weather History Date:

Wednesday, October 30, 2013

  Actual Average Record
Temperature  
Mean Temperature 49 °F 44 °F  
Max Temperature 58 °F 53 °F 75 °F (1946)
Min Temperature 40 °F 36 °F 16 °F (1905)
Degree Days  
Heating Degree Days 16 21  
Month to date heating degree days 406 500  
Since 1 July heating degree days 719 768  
Cooling Degree Days 0 0  
Month to date cooling degree days 8 0  
Year to date cooling degree days 467 313  
Moisture  
Dew Point 42 °F    
Average Humidity 76    
Maximum Humidity 96    
Minimum Humidity 55    
Precipitation  
Precipitation 0.00 in 0.08 in 4.00 in (1935)
Month to date precipitation 1.18 3.89  
Year to date precipitation 38.56 40.23  
Sea Level Pressure  
Sea Level Pressure 30.24 in    
Wind  
Wind Speed 6 mph (SW)    
Max Wind Speed 13 mph    
Max Gust Speed 18 mph    
Visibility 6 miles    
Events Fog    
T = Trace of Precipitation, MM = Missing Value Source: NWS Daily Summary

Daily Weather History Graph

Daily Weather History Graph

Search for Another Location

Airport or City:

Trip Planner

Search our weather history database for the weather conditions in past years. The results will help you decide how hot, cold, wet, or windy it might be!

Date:

Astronomy

Oct. 30, 2013 Rise Set
Actual Time 7:30 AM EDT 5:59 PM EDT
Civil Twilight 7:01 AM EDT 6:27 PM EDT
Nautical Twilight 6:29 AM EDT 7:00 PM EDT
Astronomical Twilight 5:57 AM EDT 7:32 PM EDT
Moon 3:14 AM EDT (10/30) 3:45 PM EDT (10/30)
Length of Visible Light 11h 25m
Length of Day
10h 28m
Waning Crescent, 17% of the Moon is Illuminated
Oct 30
Waning Crescent
Nov 3
New
Nov 10
First Quarter
Nov 17
Full
Nov 25
Last Quarter

Hourly Weather History & Observations

Time (EDT) Temp. Windchill Dew Point Humidity Pressure Visibility Wind Dir Wind Speed Gust Speed Precip Events Conditions
12:53 AM 39.9 °F 35.8 °F 27.0 °F 60% 30.32 in 10.0 mi SE 5.8 mph - N/A   Overcast
1:07 AM 41.0 °F 39.0 °F 28.4 °F 61% 30.29 in - SSE 3.5 mph - N/A   Overcast
1:53 AM 42.1 °F 39.2 °F 33.1 °F 70% 30.32 in 10.0 mi South 4.6 mph - N/A   Overcast
2:22 AM 42.8 °F 39.3 °F 35.6 °F 76% 30.28 in - SSW 5.8 mph - N/A   Overcast
2:53 AM 43.0 °F 38.8 °F 36.0 °F 76% 30.31 in 10.0 mi SSW 6.9 mph - N/A   Overcast
3:53 AM 43.0 °F 38.2 °F 37.9 °F 82% 30.28 in 10.0 mi SSW 8.1 mph - N/A   Overcast
4:45 AM 42.8 °F 39.3 °F 39.2 °F 87% 30.24 in 9.0 mi SSW 5.8 mph - N/A   Overcast
4:53 AM 43.0 °F 39.5 °F 39.9 °F 89% 30.27 in 9.0 mi SSW 5.8 mph - N/A   Overcast
5:53 AM 44.1 °F 41.5 °F 41.0 °F 89% 30.29 in 7.0 mi SW 4.6 mph - N/A   Overcast
6:07 AM 44.6 °F 42.2 °F 41.0 °F 87% 30.25 in 7.0 mi SW 4.6 mph - N/A   Overcast
6:34 AM 44.6 °F 41.4 °F 41.0 °F 87% 30.25 in 7.0 mi WSW 5.8 mph - N/A   Overcast
6:53 AM 45.0 °F 40.1 °F 42.1 °F 90% 30.28 in 6.0 mi SW 9.2 mph - N/A   Overcast
7:53 AM 46.0 °F 43.1 °F 43.0 °F 89% 30.28 in 7.0 mi SW 5.8 mph - N/A   Overcast
8:53 AM 46.9 °F - 44.1 °F 90% 30.29 in 7.0 mi SW 8.1 mph - N/A   Overcast
9:53 AM 48.0 °F - 44.1 °F 86% 30.29 in 9.0 mi SW 11.5 mph 18.4 mph N/A   Overcast
10:53 AM 48.0 °F - 45.0 °F 89% 30.28 in 8.0 mi WSW 8.1 mph - N/A   Overcast
11:04 AM 48.2 °F - 44.6 °F 87% 30.24 in 7.0 mi West 9.2 mph - N/A   Overcast
11:53 AM 48.9 °F - 44.1 °F 83% 30.27 in 7.0 mi WSW 6.9 mph - N/A   Overcast
12:17 PM 50.0 °F - 44.6 °F 82% 30.24 in 8.0 mi West 8.1 mph - N/A   Overcast
12:53 PM 50.0 °F - 43.0 °F 77% 30.25 in 8.0 mi West 10.4 mph - N/A   Overcast
1:35 PM 51.8 °F - 42.8 °F 71% 30.20 in 9.0 mi Variable 6.9 mph - N/A   Overcast
1:53 PM 53.1 °F - 43.0 °F 69% 30.22 in 10.0 mi West 9.2 mph - N/A   Mostly Cloudy
2:14 PM 53.6 °F - 42.8 °F 67% 30.19 in 10.0 mi Variable 4.6 mph - N/A   Scattered Clouds
2:34 PM 55.4 °F - 42.8 °F 63% 30.18 in 10.0 mi West 4.6 mph - N/A   Mostly Cloudy
2:53 PM 55.0 °F - 41.0 °F 59% 30.19 in 10.0 mi West 6.9 mph - N/A   Scattered Clouds
3:53 PM 57.0 °F - 41.0 °F 55% 30.17 in 10.0 mi SSW 4.6 mph - N/A   Clear
4:53 PM 54.0 °F - 44.1 °F 69% 30.18 in 9.0 mi ESE 5.8 mph - N/A   Clear
5:53 PM 50.0 °F - 44.1 °F 80% 30.18 in 8.0 mi SE 6.9 mph - N/A   Clear
6:53 PM 46.0 °F - 43.0 °F 89% 30.22 in 6.0 mi Calm Calm - N/A   Clear
7:53 PM 42.1 °F - 41.0 °F 96% 30.25 in 3.0 mi Calm Calm - N/A   Clear
8:53 PM 43.0 °F - 41.0 °F 93% 30.24 in 4.0 mi Calm Calm - N/A   Clear
9:08 PM 41.0 °F - 37.4 °F 87% 30.21 in 4.0 mi Calm Calm - N/A   Mostly Cloudy
9:20 PM 39.2 °F - 37.4 °F 93% 30.20 in 4.0 mi Calm Calm - N/A   Mostly Cloudy
9:32 PM 42.8 °F - 39.2 °F 87% 30.21 in 2.5 mi Calm Calm - N/A   Overcast
9:53 PM 44.1 °F 40.8 °F 42.1 °F 93% 30.24 in 2.5 mi SSW 5.8 mph - N/A   Overcast
10:02 PM 46.4 °F 42.4 °F 44.6 °F 93% 30.21 in 2.0 mi South 8.1 mph - N/A   Overcast
10:11 PM 46.4 °F 42.4 °F 44.6 °F 93% 30.21 in 1.5 mi South 8.1 mph - N/A   Overcast
10:29 PM 46.4 °F 44.3 °F 46.4 °F 100% 30.21 in 0.8 mi SSW 4.6 mph - N/A   Overcast
10:45 PM 46.4 °F 42.9 °F 46.4 °F 100% 30.21 in 1.0 mi South 6.9 mph - N/A   Overcast
10:53 PM 48.0 °F - 46.0 °F 93% 30.23 in 1.0 mi SSW 4.6 mph - N/A   Overcast
11:15 PM 48.2 °F - 46.4 °F 93% 30.22 in - SSW 6.9 mph - N/A   Overcast
11:46 PM 48.2 °F - 46.4 °F 93% 30.21 in 0.5 mi SSW 8.1 mph - N/A Fog Fog
11:53 PM 48.0 °F - 46.9 °F 96% 30.23 in 0.5 mi SW 5.8 mph - N/A Fog Fog